Time,TemperatureF,DewpointF,PressureIn,WindDirection,WindDirectionDegrees,WindSpeedMPH,WindSpeedGustMPH,Humidity,HourlyPrecipIn,Conditions,Clouds,dailyrainin,SoftwareType,DateUTC
2013-02-20 00:04:00,33.2,16.0,30.18,NNW,338,6.9,6.9,49,0.00,,,0.00,WUHU216HW,2013-02-20 05:04:00,
2013-02-20 00:09:00,33.0,15.9,30.18,NNW,338,0.0,6.9,49,0.00,,,0.00,WUHU216HW,2013-02-20 05:09:00,
2013-02-20 00:14:00,32.9,15.7,30.18,NW,315,0.0,0.0,49,0.00,,,0.00,WUHU216HW,2013-02-20 05:14:00,
2013-02-20 00:19:00,32.7,16.0,30.18,NNW,338,0.0,0.0,50,0.00,,,0.00,WUHU216HW,2013-02-20 05:19:00,
2013-02-20 00:24:00,32.5,15.9,30.19,NNW,338,0.0,3.3,50,0.00,,,0.00,WUHU216HW,2013-02-20 05:24:00,
2013-02-20 00:29:00,32.5,15.9,30.19,NNW,338,1.1,6.2,50,0.00,,,0.00,WUHU216HW,2013-02-20 05:29:00,
2013-02-20 00:34:00,32.3,15.7,30.19,NNW,338,0.0,6.2,50,0.00,,,0.00,WUHU216HW,2013-02-20 05:34:00,
2013-02-20 00:39:00,32.1,15.6,30.19,NNW,338,0.0,1.1,50,0.00,,,0.00,WUHU216HW,2013-02-20 05:39:00,
2013-02-20 00:44:00,32.1,16.0,30.19,NNW,338,0.0,0.0,51,0.00,,,0.00,WUHU216HW,2013-02-20 05:44:00,
2013-02-20 00:49:00,32.1,16.0,30.19,WNW,293,0.0,0.0,51,0.00,,,0.00,WUHU216HW,2013-02-20 05:49:00,
2013-02-20 00:54:00,31.8,15.6,30.19,North,0,1.1,1.1,51,0.00,,,0.00,WUHU216HW,2013-02-20 05:54:00,
2013-02-20 00:59:00,31.6,15.9,30.19,WNW,293,0.0,1.1,52,0.00,,,0.00,WUHU216HW,2013-02-20 05:59:00,
2013-02-20 01:04:00,31.6,15.9,30.19,NNW,338,0.0,1.1,52,0.00,,,0.00,WUHU216HW,2013-02-20 06:04:00,
2013-02-20 01:09:00,31.6,15.9,30.19,NNW,338,0.0,0.0,52,0.00,,,0.00,WUHU216HW,2013-02-20 06:09:00,
2013-02-20 01:14:00,31.2,15.6,30.19,NW,315,0.0,0.0,52,0.00,,,0.00,WUHU216HW,2013-02-20 06:14:00,
2013-02-20 01:19:00,31.2,15.6,30.19,WNW,293,0.0,0.0,52,0.00,,,0.00,WUHU216HW,2013-02-20 06:19:00,
2013-02-20 01:24:00,31.1,15.4,30.19,NNW,338,0.0,0.0,52,0.00,,,0.00,WUHU216HW,2013-02-20 06:24:00,
2013-02-20 01:29:00,30.9,15.2,30.19,NNW,338,0.0,0.0,52,0.00,,,0.00,WUHU216HW,2013-02-20 06:29:00,
2013-02-20 01:34:00,30.7,15.1,30.19,North,0,0.0,0.0,52,0.00,,,0.00,WUHU216HW,2013-02-20 06:34:00,
2013-02-20 01:39:00,30.5,14.9,30.19,NNW,338,0.0,0.0,52,0.00,,,0.00,WUHU216HW,2013-02-20 06:39:00,
2013-02-20 01:44:00,30.3,15.2,30.19,NW,315,0.0,0.0,53,0.00,,,0.00,WUHU216HW,2013-02-20 06:44:00,
2013-02-20 01:49:00,30.3,15.2,30.19,NW,315,0.0,0.0,53,0.00,,,0.00,WUHU216HW,2013-02-20 06:49:00,
2013-02-20 01:54:00,30.0,14.9,30.20,NW,315,0.0,0.0,53,0.00,,,0.00,WUHU216HW,2013-02-20 06:54:00,
2013-02-20 01:59:00,30.0,14.9,30.19,NNW,338,0.0,0.0,53,0.00,,,0.00,WUHU216HW,2013-02-20 06:59:00,
2013-02-20 02:04:00,29.8,15.1,30.19,NNW,338,0.0,0.0,54,0.00,,,0.00,WUHU216HW,2013-02-20 07:04:00,
2013-02-20 02:09:00,29.6,14.9,30.19,NNW,338,0.0,0.0,54,0.00,,,0.00,WUHU216HW,2013-02-20 07:09:00,
2013-02-20 02:14:00,29.4,14.8,30.19,NNW,338,0.0,0.0,54,0.00,,,0.00,WUHU216HW,2013-02-20 07:14:00,
2013-02-20 02:19:00,29.3,14.6,30.19,NNW,338,0.0,0.0,54,0.00,,,0.00,WUHU216HW,2013-02-20 07:19:00,
2013-02-20 02:24:00,29.1,14.9,30.19,NNW,338,0.0,0.0,55,0.00,,,0.00,WUHU216HW,2013-02-20 07:24:00,
2013-02-20 02:29:00,29.1,14.9,30.19,NNW,338,0.0,0.0,55,0.00,,,0.00,WUHU216HW,2013-02-20 07:29:00,
2013-02-20 02:34:00,28.9,14.7,30.19,NNW,338,0.0,0.0,55,0.00,,,0.00,WUHU216HW,2013-02-20 07:34:00,
2013-02-20 02:39:00,28.9,14.7,30.19,NE,45,0.0,0.0,55,0.00,,,0.00,WUHU216HW,2013-02-20 07:39:00,
2013-02-20 02:44:00,28.9,14.7,30.19,NW,315,0.0,0.0,55,0.00,,,0.00,WUHU216HW,2013-02-20 07:44:00,
2013-02-20 02:49:00,28.7,14.5,30.20,North,0,0.0,0.0,55,0.00,,,0.00,WUHU216HW,2013-02-20 07:49:00,
2013-02-20 02:54:00,28.7,14.5,30.20,NNE,23,0.0,0.0,55,0.00,,,0.00,WUHU216HW,2013-02-20 07:54:00,
2013-02-20 02:59:00,28.7,14.5,30.20,NNE,23,0.0,0.0,55,0.00,,,0.00,WUHU216HW,2013-02-20 07:59:00,
2013-02-20 03:05:00,28.7,14.5,30.20,NE,45,0.0,0.0,55,0.00,,,0.00,WUHU216HW,2013-02-20 08:05:00,
2013-02-20 03:10:00,28.5,14.4,30.21,NE,45,0.0,0.0,55,0.00,,,0.00,WUHU216HW,2013-02-20 08:10:00,
2013-02-20 03:15:00,28.4,14.2,30.20,NNW,338,0.0,0.0,55,0.00,,,0.00,WUHU216HW,2013-02-20 08:15:00,
2013-02-20 03:20:00,28.2,14.0,30.20,NNW,338,0.0,0.0,55,0.00,,,0.00,WUHU216HW,2013-02-20 08:20:00,
2013-02-20 03:25:00,28.2,14.0,30.20,NNW,338,0.0,0.0,55,0.00,,,0.00,WUHU216HW,2013-02-20 08:25:00,
2013-02-20 03:30:00,28.2,14.0,30.21,NE,45,0.0,0.0,55,0.00,,,0.00,WUHU216HW,2013-02-20 08:30:00,
2013-02-20 03:35:00,28.2,14.0,30.21,NNW,338,0.0,0.0,55,0.00,,,0.00,WUHU216HW,2013-02-20 08:35:00,
2013-02-20 03:40:00,28.2,14.0,30.21,NNW,338,0.0,0.0,55,0.00,,,0.00,WUHU216HW,2013-02-20 08:40:00,
2013-02-20 03:45:00,28.2,14.0,30.21,NNW,338,0.0,0.0,55,0.00,,,0.00,WUHU216HW,2013-02-20 08:45:00,
2013-02-20 03:50:00,28.0,13.9,30.21,North,0,0.0,0.0,55,0.00,,,0.00,WUHU216HW,2013-02-20 08:50:00,
2013-02-20 03:55:00,28.0,13.9,30.21,North,0,0.0,0.0,55,0.00,,,0.00,WUHU216HW,2013-02-20 08:55:00,
2013-02-20 04:00:00,28.0,13.9,30.21,North,0,0.0,0.0,55,0.00,,,0.00,WUHU216HW,2013-02-20 09:00:00,
2013-02-20 04:05:00,28.0,13.9,30.21,North,0,0.0,0.0,55,0.00,,,0.00,WUHU216HW,2013-02-20 09:05:00,
2013-02-20 04:10:00,27.6,13.5,30.21,NNE,23,0.0,0.0,55,0.00,,,0.00,WUHU216HW,2013-02-20 09:10:00,
2013-02-20 04:15:00,27.6,13.5,30.21,NNE,23,0.0,0.0,55,0.00,,,0.00,WUHU216HW,2013-02-20 09:15:00,
2013-02-20 04:20:00,27.6,13.5,30.21,NNE,23,0.0,0.0,55,0.00,,,0.00,WUHU216HW,2013-02-20 09:20:00,
2013-02-20 04:25:00,27.6,13.5,30.21,NNE,23,0.0,0.0,55,0.00,,,0.00,WUHU216HW,2013-02-20 09:25:00,
2013-02-20 04:30:00,27.6,13.5,30.21,NE,45,0.0,0.0,55,0.00,,,0.00,WUHU216HW,2013-02-20 09:30:00,
2013-02-20 04:35:00,27.6,13.5,30.21,NE,45,0.0,0.0,55,0.00,,,0.00,WUHU216HW,2013-02-20 09:35:00,
2013-02-20 04:40:00,27.6,13.5,30.21,NE,45,0.0,0.0,55,0.00,,,0.00,WUHU216HW,2013-02-20 09:40:00,
2013-02-20 04:45:00,27.5,12.9,30.21,NE,45,0.0,0.0,55,0.00,,,0.00,WUHU216HW,2013-02-20 09:45:00,
2013-02-20 04:50:00,27.5,12.9,30.21,NE,45,0.0,0.0,54,0.00,,,0.00,WUHU216HW,2013-02-20 09:50:00,
2013-02-20 04:55:00,27.5,12.9,30.21,NE,45,0.0,0.0,54,0.00,,,0.00,WUHU216HW,2013-02-20 09:55:00,
2013-02-20 05:00:00,27.5,12.9,30.21,NE,45,0.0,0.0,54,0.00,,,0.00,WUHU216HW,2013-02-20 10:00:00,
2013-02-20 05:05:00,27.5,12.9,30.21,NE,45,0.0,0.0,54,0.00,,,0.00,WUHU216HW,2013-02-20 10:05:00,
2013-02-20 05:10:00,27.3,12.7,30.20,NE,45,0.0,0.0,54,0.00,,,0.00,WUHU216HW,2013-02-20 10:10:00,
2013-02-20 05:15:00,27.3,12.7,30.20,NE,45,0.0,0.0,54,0.00,,,0.00,WUHU216HW,2013-02-20 10:15:00,
2013-02-20 05:20:00,27.3,12.7,30.20,NE,45,0.0,0.0,54,0.00,,,0.00,WUHU216HW,2013-02-20 10:20:00,
2013-02-20 05:25:00,27.3,12.7,30.21,NE,45,0.0,0.0,54,0.00,,,0.00,WUHU216HW,2013-02-20 10:25:00,
2013-02-20 05:30:00,27.3,12.7,30.20,NE,45,0.0,0.0,54,0.00,,,0.00,WUHU216HW,2013-02-20 10:30:00,
2013-02-20 05:35:00,27.3,12.7,30.21,NE,45,0.0,0.0,54,0.00,,,0.00,WUHU216HW,2013-02-20 10:35:00,
2013-02-20 05:40:00,27.3,12.7,30.21,NE,45,0.0,0.0,54,0.00,,,0.00,WUHU216HW,2013-02-20 10:40:00,
2013-02-20 05:45:00,27.5,12.9,30.21,NE,45,0.0,0.0,54,0.00,,,0.00,WUHU216HW,2013-02-20 10:45:00,
2013-02-20 05:50:00,27.5,12.9,30.21,NE,45,0.0,0.0,54,0.00,,,0.00,WUHU216HW,2013-02-20 10:50:00,
2013-02-20 05:55:00,27.5,12.9,30.21,NE,45,0.0,0.0,54,0.00,,,0.00,WUHU216HW,2013-02-20 10:55:00,
2013-02-20 06:00:00,27.5,12.9,30.21,WNW,293,0.0,0.0,54,0.00,,,0.00,WUHU216HW,2013-02-20 11:00:00,
2013-02-20 06:05:00,27.5,12.9,30.21,NNE,23,0.0,0.0,54,0.00,,,0.00,WUHU216HW,2013-02-20 11:05:00,
2013-02-20 06:10:00,27.5,12.9,30.21,North,0,0.0,0.0,54,0.00,,,0.00,WUHU216HW,2013-02-20 11:10:00,
2013-02-20 06:15:00,27.5,13.1,30.21,North,0,0.0,0.0,54,0.00,,,0.00,WUHU216HW,2013-02-20 11:15:00,
2013-02-20 06:20:00,27.6,13.1,30.22,NW,315,0.0,0.0,54,0.00,,,0.00,WUHU216HW,2013-02-20 11:20:00,
2013-02-20 06:25:00,27.6,13.1,30.22,WNW,293,0.0,0.0,54,0.00,,,0.00,WUHU216HW,2013-02-20 11:25:00,
2013-02-20 06:30:00,27.6,13.1,30.22,NNE,23,0.0,0.0,54,0.00,,,0.00,WUHU216HW,2013-02-20 11:30:00,
2013-02-20 06:35:00,27.6,13.1,30.22,NE,45,0.0,0.0,54,0.00,,,0.00,WUHU216HW,2013-02-20 11:35:00,
2013-02-20 06:40:00,27.6,13.1,30.22,NNE,23,0.0,0.0,54,0.00,,,0.00,WUHU216HW,2013-02-20 11:40:00,
2013-02-20 06:45:00,27.6,13.1,30.22,NW,315,0.0,0.0,54,0.00,,,0.00,WUHU216HW,2013-02-20 11:45:00,
2013-02-20 06:50:00,27.6,13.1,30.22,WNW,293,0.0,0.0,54,0.00,,,0.00,WUHU216HW,2013-02-20 11:50:00,
2013-02-20 06:55:00,27.6,13.1,30.22,WNW,293,0.0,0.0,54,0.00,,,0.00,WUHU216HW,2013-02-20 11:55:00,
2013-02-20 07:00:00,27.6,13.1,30.22,NNW,338,0.0,0.0,54,0.00,,,0.00,WUHU216HW,2013-02-20 12:00:00,
2013-02-20 07:05:00,27.6,13.1,30.23,NNW,338,0.0,0.0,54,0.00,,,0.00,WUHU216HW,2013-02-20 12:05:00,
2013-02-20 07:10:00,27.6,13.1,30.23,NNW,338,0.0,0.0,54,0.00,,,0.00,WUHU216HW,2013-02-20 12:10:00,
2013-02-20 07:15:00,27.6,13.1,30.22,NW,315,0.0,0.0,54,0.00,,,0.00,WUHU216HW,2013-02-20 12:15:00,
2013-02-20 07:20:00,27.6,13.1,30.22,WNW,293,0.0,0.0,54,0.00,,,0.00,WUHU216HW,2013-02-20 12:20:00,
2013-02-20 07:25:00,27.6,13.1,30.22,WNW,293,0.0,0.0,54,0.00,,,0.00,WUHU216HW,2013-02-20 12:25:00,
2013-02-20 07:30:00,27.6,13.1,30.22,WNW,293,0.0,0.0,54,0.00,,,0.00,WUHU216HW,2013-02-20 12:30:00,
2013-02-20 07:35:00,27.5,12.9,30.23,WNW,293,0.0,0.0,54,0.00,,,0.00,WUHU216HW,2013-02-20 12:35:00,
2013-02-20 07:40:00,27.5,12.9,30.22,West,270,0.0,0.0,54,0.00,,,0.00,WUHU216HW,2013-02-20 12:40:00,
2013-02-20 07:45:00,27.3,12.7,30.22,NE,45,0.0,0.0,54,0.00,,,0.00,WUHU216HW,2013-02-20 12:45:00,
2013-02-20 07:50:00,27.5,12.9,30.22,NE,45,0.0,0.0,54,0.00,,,0.00,WUHU216HW,2013-02-20 12:50:00,
2013-02-20 07:55:00,27.5,12.9,30.22,NE,45,0.0,0.0,54,0.00,,,0.00,WUHU216HW,2013-02-20 12:55:00,
2013-02-20 08:00:00,27.5,12.9,30.22,NE,45,0.0,0.0,54,0.00,,,0.00,WUHU216HW,2013-02-20 13:00:00,
2013-02-20 08:05:00,27.6,13.1,30.22,WSW,248,0.0,0.0,54,0.00,,,0.00,WUHU216HW,2013-02-20 13:05:00,
2013-02-20 08:10:00,27.6,13.5,30.22,WSW,248,0.0,0.0,55,0.00,,,0.00,WUHU216HW,2013-02-20 13:10:00,
2013-02-20 08:15:00,27.6,13.5,30.23,NE,45,0.0,0.0,55,0.00,,,0.00,WUHU216HW,2013-02-20 13:15:00,
2013-02-20 08:20:00,28.0,13.4,30.23,NE,45,0.0,0.0,54,0.00,,,0.00,WUHU216HW,2013-02-20 13:20:00,
2013-02-20 08:25:00,28.2,13.6,30.24,NE,45,0.0,0.0,54,0.00,,,0.00,WUHU216HW,2013-02-20 13:25:00,
2013-02-20 08:30:00,28.2,13.6,30.23,West,270,0.0,0.0,54,0.00,,,0.00,WUHU216HW,2013-02-20 13:30:00,
2013-02-20 08:35:00,28.5,14.4,30.23,North,0,0.0,0.0,55,0.00,,,0.00,WUHU216HW,2013-02-20 13:35:00,
2013-02-20 08:40:00,29.1,14.9,30.23,West,270,0.0,0.0,55,0.00,,,0.00,WUHU216HW,2013-02-20 13:40:00,
2013-02-20 08:45:00,29.4,14.8,30.23,North,0,0.0,0.0,54,0.00,,,0.00,WUHU216HW,2013-02-20 13:45:00,
2013-02-20 08:50:00,30.0,15.3,30.23,WNW,293,0.0,0.0,54,0.00,,,0.00,WUHU216HW,2013-02-20 13:50:00,
2013-02-20 08:55:00,30.7,15.5,30.24,NE,45,0.0,0.0,53,0.00,,,0.00,WUHU216HW,2013-02-20 13:55:00,
2013-02-20 09:00:00,31.2,16.0,30.24,North,0,0.0,0.0,53,0.00,,,0.00,WUHU216HW,2013-02-20 14:00:00,
2013-02-20 09:05:00,31.6,15.9,30.24,NNE,23,0.0,0.0,52,0.00,,,0.00,WUHU216HW,2013-02-20 14:05:00,
2013-02-20 09:10:00,32.3,16.6,30.24,NW,315,0.0,0.0,52,0.00,,,0.00,WUHU216HW,2013-02-20 14:10:00,
2013-02-20 09:15:00,32.7,16.5,30.24,North,0,0.0,0.0,51,0.00,,,0.00,WUHU216HW,2013-02-20 14:15:00,
2013-02-20 09:20:00,33.0,16.4,30.24,WNW,293,0.0,0.0,50,0.00,,,0.00,WUHU216HW,2013-02-20 14:20:00,
2013-02-20 09:25:00,33.4,16.3,30.24,North,0,0.6,0.6,49,0.00,,,0.00,WUHU216HW,2013-02-20 14:25:00,
2013-02-20 09:30:00,33.9,16.7,30.24,NNE,23,0.0,0.6,49,0.00,,,0.00,WUHU216HW,2013-02-20 14:30:00,
2013-02-20 09:35:00,34.3,16.5,30.25,NW,315,5.1,5.1,48,0.00,,,0.00,WUHU216HW,2013-02-20 14:35:00,
2013-02-20 09:40:00,34.5,16.2,30.25,NNW,338,0.0,5.1,47,0.00,,,0.00,WUHU216HW,2013-02-20 14:40:00,
2013-02-20 09:45:00,34.8,16.5,30.25,WSW,248,0.0,0.0,47,0.00,,,0.00,WUHU216HW,2013-02-20 14:45:00,
2013-02-20 09:50:00,35.2,16.9,30.25,NE,45,0.0,1.7,47,0.00,,,0.00,WUHU216HW,2013-02-20 14:50:00,
2013-02-20 09:55:00,35.4,16.5,30.25,North,0,0.0,1.7,46,0.00,,,0.00,WUHU216HW,2013-02-20 14:55:00,
2013-02-20 10:00:00,35.7,16.4,30.25,NNE,23,0.0,0.0,45,0.00,,,0.00,WUHU216HW,2013-02-20 15:00:00,
2013-02-20 10:05:00,36.1,16.7,30.25,NNE,23,0.0,0.0,45,0.00,,,0.00,WUHU216HW,2013-02-20 15:05:00,
2013-02-20 10:10:00,36.5,16.5,30.25,NNE,23,0.0,0.0,44,0.00,,,0.00,WUHU216HW,2013-02-20 15:10:00,
2013-02-20 10:15:00,36.8,16.3,30.25,NW,315,0.0,0.0,43,0.00,,,0.00,WUHU216HW,2013-02-20 15:15:00,
2013-02-20 10:20:00,37.2,16.6,30.25,NW,315,0.0,0.0,43,0.00,,,0.00,WUHU216HW,2013-02-20 15:20:00,
2013-02-20 10:25:00,37.5,16.4,30.25,NW,315,0.0,0.0,42,0.00,,,0.00,WUHU216HW,2013-02-20 15:25:00,
2013-02-20 10:30:00,37.9,16.7,30.24,West,270,0.0,0.0,42,0.00,,,0.00,WUHU216HW,2013-02-20 15:30:00,
2013-02-20 10:36:00,38.1,16.4,30.25,NE,45,0.0,0.0,41,0.00,,,0.00,WUHU216HW,2013-02-20 15:36:00,
2013-02-20 10:41:00,38.4,16.2,30.25,North,0,0.0,0.0,40,0.00,,,0.00,WUHU216HW,2013-02-20 15:41:00,
2013-02-20 10:46:00,38.6,16.3,30.25,NNW,338,0.0,0.0,40,0.00,,,0.00,WUHU216HW,2013-02-20 15:46:00,
2013-02-20 10:51:00,38.8,15.2,30.25,NW,315,4.6,4.6,38,0.00,,,0.00,WUHU216HW,2013-02-20 15:51:00,
2013-02-20 10:56:00,39.0,14.7,30.25,NNW,338,0.0,4.6,37,0.00,,,0.00,WUHU216HW,2013-02-20 15:56:00,
2013-02-20 11:01:00,39.0,14.7,30.26,WSW,248,0.0,0.0,37,0.00,,,0.00,WUHU216HW,2013-02-20 16:01:00,
2013-02-20 11:06:00,39.3,15.0,30.26,WNW,293,0.2,4.0,37,0.00,,,0.00,WUHU216HW,2013-02-20 16:06:00,
2013-02-20 11:11:00,39.3,14.4,30.25,NW,315,0.0,4.0,36,0.00,,,0.00,WUHU216HW,2013-02-20 16:11:00,
2013-02-20 11:16:00,39.7,14.1,30.25,WNW,293,0.0,3.8,35,0.00,,,0.00,WUHU216HW,2013-02-20 16:16:00,
2013-02-20 11:21:00,39.7,14.1,30.25,North,0,0.0,0.0,35,0.00,,,0.00,WUHU216HW,2013-02-20 16:21:00,
2013-02-20 11:26:00,40.2,14.6,30.24,NW,315,3.3,3.3,35,0.00,,,0.00,WUHU216HW,2013-02-20 16:26:00,
2013-02-20 11:31:00,40.2,13.9,30.24,NE,45,0.0,3.3,34,0.00,,,0.00,WUHU216HW,2013-02-20 16:31:00,
2013-02-20 11:36:00,40.6,14.9,30.24,North,0,0.0,3.3,34,0.00,,,0.00,WUHU216HW,2013-02-20 16:36:00,
2013-02-20 11:41:00,41.0,14.6,30.24,NNW,338,0.0,0.0,34,0.00,,,0.00,WUHU216HW,2013-02-20 16:41:00,
2013-02-20 11:46:00,41.1,14.1,30.25,NNW,338,0.0,0.0,33,0.00,,,0.00,WUHU216HW,2013-02-20 16:46:00,
2013-02-20 11:51:00,41.3,13.6,30.24,NNW,338,1.1,1.1,32,0.00,,,0.00,WUHU216HW,2013-02-20 16:51:00,
2013-02-20 11:56:00,41.7,14.5,30.24,NNE,23,0.0,1.1,33,0.00,,,0.00,WUHU216HW,2013-02-20 16:56:00,
2013-02-20 12:01:00,41.7,14.5,30.24,North,0,4.0,4.0,33,0.00,,,0.00,WUHU216HW,2013-02-20 17:01:00,
2013-02-20 12:06:00,42.0,14.0,30.24,WNW,293,0.0,4.0,32,0.00,,,0.00,WUHU216HW,2013-02-20 17:06:00,
2013-02-20 12:11:00,42.0,13.5,30.23,NNW,338,0.0,0.0,31,0.00,,,0.00,WUHU216HW,2013-02-20 17:11:00,
2013-02-20 12:16:00,42.4,13.1,30.23,North,0,0.0,9.1,30,0.00,,,0.00,WUHU216HW,2013-02-20 17:16:00,
2013-02-20 12:21:00,42.6,12.4,30.24,NNW,338,6.0,9.1,29,0.00,,,0.00,WUHU216HW,2013-02-20 17:21:00,
2013-02-20 12:26:00,42.6,13.3,30.23,NNW,338,0.0,6.2,30,0.00,,,0.00,WUHU216HW,2013-02-20 17:26:00,
2013-02-20 12:31:00,42.6,11.5,30.22,NW,315,6.4,6.4,28,0.00,,,0.00,WUHU216HW,2013-02-20 17:31:00,
2013-02-20 12:36:00,42.6,11.6,30.22,WNW,293,9.1,9.1,28,0.00,,,0.00,WUHU216HW,2013-02-20 17:36:00,
2013-02-20 12:41:00,42.9,11.8,30.22,North,0,0.0,9.1,28,0.00,,,0.00,WUHU216HW,2013-02-20 17:41:00,
2013-02-20 12:46:00,42.9,11.8,30.22,NNW,338,3.8,9.1,28,0.00,,,0.00,WUHU216HW,2013-02-20 17:46:00,
2013-02-20 12:51:00,43.5,14.1,30.22,NE,45,0.0,3.8,30,0.00,,,0.00,WUHU216HW,2013-02-20 17:51:00,
2013-02-20 12:56:00,43.5,14.1,30.23,NNW,338,6.4,6.4,30,0.00,,,0.00,WUHU216HW,2013-02-20 17:56:00,
2013-02-20 13:01:00,43.5,14.1,30.22,NE,45,0.0,8.2,30,0.00,,,0.00,WUHU216HW,2013-02-20 18:01:00,
2013-02-20 13:06:00,43.5,14.1,30.22,NE,45,0.0,8.2,30,0.00,,,0.00,WUHU216HW,2013-02-20 18:06:00,
2013-02-20 13:11:00,43.7,14.2,30.21,NW,315,7.3,7.3,30,0.00,,,0.00,WUHU216HW,2013-02-20 18:11:00,
2013-02-20 13:16:00,43.5,13.2,30.22,WNW,293,7.8,7.8,29,0.00,,,0.00,WUHU216HW,2013-02-20 18:16:00,
2013-02-20 13:21:00,43.3,13.0,30.21,North,0,0.0,7.8,29,0.00,,,0.00,WUHU216HW,2013-02-20 18:21:00,
2013-02-20 13:26:00,43.3,13.0,30.21,NNW,338,0.0,0.0,29,0.00,,,0.00,WUHU216HW,2013-02-20 18:26:00,
2013-02-20 13:31:00,43.5,14.1,30.21,NW,315,4.0,4.0,30,0.00,,,0.00,WUHU216HW,2013-02-20 18:31:00,
2013-02-20 13:36:00,43.3,13.9,30.21,NNW,338,0.0,4.0,30,0.00,,,0.00,WUHU216HW,2013-02-20 18:36:00,
2013-02-20 13:41:00,43.5,14.1,30.21,NW,315,0.0,4.2,30,0.00,,,0.00,WUHU216HW,2013-02-20 18:41:00,
2013-02-20 13:46:00,43.5,14.1,30.21,North,0,0.0,4.2,30,0.00,,,0.00,WUHU216HW,2013-02-20 18:46:00,
2013-02-20 13:51:00,43.8,15.0,30.20,NNW,338,0.0,0.0,31,0.00,,,0.00,WUHU216HW,2013-02-20 18:51:00,
2013-02-20 13:56:00,44.0,15.2,30.21,NNW,338,0.0,0.0,31,0.00,,,0.00,WUHU216HW,2013-02-20 18:56:00,
2013-02-20 14:01:00,44.4,14.9,30.20,NNW,338,7.8,7.8,30,0.00,,,0.00,WUHU216HW,2013-02-20 19:01:00,
2013-02-20 14:06:00,44.4,14.9,30.20,NE,45,0.0,7.8,30,0.00,,,0.00,WUHU216HW,2013-02-20 19:06:00,
2013-02-20 14:11:00,44.6,15.0,30.20,WNW,293,0.0,0.0,30,0.00,,,0.00,WUHU216HW,2013-02-20 19:11:00,
2013-02-20 14:16:00,44.7,15.2,30.20,NNW,338,0.0,0.0,30,0.00,,,0.00,WUHU216HW,2013-02-20 19:16:00,
2013-02-20 14:21:00,44.7,15.2,30.19,NNW,338,0.0,4.6,30,0.00,,,0.00,WUHU216HW,2013-02-20 19:21:00,
2013-02-20 14:26:00,44.7,15.2,30.20,NNW,338,0.0,4.6,30,0.00,,,0.00,WUHU216HW,2013-02-20 19:26:00,
2013-02-20 14:31:00,44.9,15.4,30.20,NNE,23,0.0,0.0,30,0.00,,,0.00,WUHU216HW,2013-02-20 19:31:00,
2013-02-20 14:36:00,44.7,14.3,30.20,North,0,0.0,0.0,29,0.00,,,0.00,WUHU216HW,2013-02-20 19:36:00,
2013-02-20 14:41:00,44.4,14.1,30.19,NNW,338,0.0,3.8,29,0.00,,,0.00,WUHU216HW,2013-02-20 19:41:00,
2013-02-20 14:46:00,44.4,14.0,30.20,NW,315,0.0,3.8,29,0.00,,,0.00,WUHU216HW,2013-02-20 19:46:00,
2013-02-20 14:51:00,44.2,13.8,30.20,SSE,158,0.0,0.0,29,0.00,,,0.00,WUHU216HW,2013-02-20 19:51:00,
2013-02-20 14:56:00,44.0,13.6,30.20,NNW,338,3.3,3.3,29,0.00,,,0.00,WUHU216HW,2013-02-20 19:56:00,
2013-02-20 15:01:00,44.0,13.6,30.20,North,0,0.0,3.3,29,0.00,,,0.00,WUHU216HW,2013-02-20 20:01:00,
2013-02-20 15:06:00,44.0,13.6,30.20,North,0,0.0,3.3,29,0.00,,,0.00,WUHU216HW,2013-02-20 20:06:00,
2013-02-20 15:11:00,44.0,13.6,30.20,NNE,23,0.0,0.0,29,0.00,,,0.00,WUHU216HW,2013-02-20 20:11:00,
2013-02-20 15:16:00,44.2,14.7,30.19,NNE,23,0.0,0.0,30,0.00,,,0.00,WUHU216HW,2013-02-20 20:16:00,
2013-02-20 15:21:00,44.2,13.8,30.19,West,270,3.8,3.8,29,0.00,,,0.00,WUHU216HW,2013-02-20 20:21:00,
2013-02-20 15:26:00,43.8,13.5,30.19,NNW,338,0.0,3.8,29,0.00,,,0.00,WUHU216HW,2013-02-20 20:26:00,
2013-02-20 15:31:00,43.7,13.3,30.19,NNW,338,4.6,4.6,29,0.00,,,0.00,WUHU216HW,2013-02-20 20:31:00,
2013-02-20 15:36:00,43.5,13.2,30.19,WSW,248,0.0,4.6,29,0.00,,,0.00,WUHU216HW,2013-02-20 20:36:00,
2013-02-20 15:41:00,43.3,13.0,30.19,NNW,338,0.0,4.6,29,0.00,,,0.00,WUHU216HW,2013-02-20 20:41:00,
2013-02-20 15:46:00,43.1,12.8,30.20,WNW,293,0.0,0.0,29,0.00,,,0.00,WUHU216HW,2013-02-20 20:46:00,
2013-02-20 15:51:00,43.1,11.9,30.20,NW,315,0.0,0.0,28,0.00,,,0.00,WUHU216HW,2013-02-20 20:51:00,
2013-02-20 15:56:00,42.9,11.8,30.20,NNW,338,4.6,4.6,28,0.00,,,0.00,WUHU216HW,2013-02-20 20:56:00,
2013-02-20 16:01:00,42.9,11.8,30.20,NNW,338,0.0,4.6,28,0.00,,,0.00,WUHU216HW,2013-02-20 21:01:00,
2013-02-20 16:06:00,42.6,11.5,30.21,North,0,0.0,0.0,28,0.00,,,0.00,WUHU216HW,2013-02-20 21:06:00,
2013-02-20 16:11:00,42.6,12.4,30.21,NNW,338,0.0,0.0,29,0.00,,,0.00,WUHU216HW,2013-02-20 21:11:00,
2013-02-20 16:16:00,42.4,12.2,30.21,North,0,0.0,0.0,29,0.00,,,0.00,WUHU216HW,2013-02-20 21:16:00,
2013-02-20 16:21:00,42.0,12.8,30.21,North,0,0.0,0.0,30,0.00,,,0.00,WUHU216HW,2013-02-20 21:21:00,
2013-02-20 16:26:00,42.0,12.8,30.21,WNW,293,0.0,0.0,30,0.00,,,0.00,WUHU216HW,2013-02-20 21:26:00,
2013-02-20 16:31:00,41.7,11.6,30.21,NNW,338,0.0,0.0,29,0.00,,,0.00,WUHU216HW,2013-02-20 21:31:00,
2013-02-20 16:36:00,41.5,12.4,30.21,NNW,338,0.0,0.0,30,0.00,,,0.00,WUHU216HW,2013-02-20 21:36:00,
2013-02-20 16:41:00,41.5,12.4,30.21,NNW,338,0.0,0.0,30,0.00,,,0.00,WUHU216HW,2013-02-20 21:41:00,
2013-02-20 16:46:00,41.3,11.4,30.21,NNW,338,0.0,0.0,29,0.00,,,0.00,WUHU216HW,2013-02-20 21:46:00,
2013-02-20 16:51:00,41.3,12.9,30.21,NW,315,0.0,0.0,31,0.00,,,0.00,WUHU216HW,2013-02-20 21:51:00,
2013-02-20 16:56:00,41.1,12.8,30.22,NNW,338,0.0,0.0,31,0.00,,,0.00,WUHU216HW,2013-02-20 21:56:00,
2013-02-20 17:01:00,40.8,11.8,30.22,NW,315,0.0,0.0,30,0.00,,,0.00,WUHU216HW,2013-02-20 22:01:00,
2013-02-20 17:06:00,40.4,12.1,30.23,NNW,338,0.0,0.0,31,0.00,,,0.00,WUHU216HW,2013-02-20 22:06:00,
2013-02-20 17:11:00,40.2,12.0,30.23,NNW,338,0.0,0.0,31,0.00,,,0.00,WUHU216HW,2013-02-20 22:11:00,
2013-02-20 17:16:00,39.9,11.6,30.24,NNW,338,0.0,0.0,31,0.00,,,0.00,WUHU216HW,2013-02-20 22:16:00,
2013-02-20 17:21:00,39.7,12.1,30.24,NW,315,0.0,0.0,32,0.00,,,0.00,WUHU216HW,2013-02-20 22:21:00,
2013-02-20 17:26:00,39.5,12.0,30.24,NNW,338,0.0,0.0,32,0.00,,,0.00,WUHU216HW,2013-02-20 22:26:00,
2013-02-20 17:31:00,39.3,12.5,30.24,North,0,0.0,0.0,33,0.00,,,0.00,WUHU216HW,2013-02-20 22:31:00,
2013-02-20 17:36:00,39.2,12.3,30.25,NNW,338,0.0,0.0,33,0.00,,,0.00,WUHU216HW,2013-02-20 22:36:00,
2013-02-20 17:41:00,39.0,12.1,30.25,NNW,338,0.0,0.0,33,0.00,,,0.00,WUHU216HW,2013-02-20 22:41:00,
2013-02-20 17:46:00,38.8,12.6,30.25,NNW,338,0.0,0.0,34,0.00,,,0.00,WUHU216HW,2013-02-20 22:46:00,
2013-02-20 17:52:00,38.8,12.6,30.25,NNW,338,0.0,0.0,34,0.00,,,0.00,WUHU216HW,2013-02-20 22:52:00,
2013-02-20 17:57:00,38.4,12.3,30.25,North,0,0.0,0.0,34,0.00,,,0.00,WUHU216HW,2013-02-20 22:57:00,
2013-02-20 18:02:00,38.3,12.1,30.25,NNW,338,0.0,0.0,34,0.00,,,0.00,WUHU216HW,2013-02-20 23:02:00,
2013-02-20 18:07:00,37.9,11.8,30.26,NNW,338,0.0,0.0,34,0.00,,,0.00,WUHU216HW,2013-02-20 23:07:00,
2013-02-20 18:12:00,37.7,12.1,30.26,NNW,338,0.0,1.1,35,0.00,,,0.00,WUHU216HW,2013-02-20 23:12:00,
2013-02-20 18:17:00,37.4,12.0,30.24,NNW,338,0.0,1.1,35,0.00,,,0.00,WUHU216HW,2013-02-20 23:17:00,
2013-02-20 18:22:00,37.2,12.5,30.24,WNW,293,0.0,0.0,36,0.00,,,0.00,WUHU216HW,2013-02-20 23:22:00,
2013-02-20 18:27:00,36.8,12.0,30.24,NNW,338,0.0,0.0,36,0.00,,,0.00,WUHU216HW,2013-02-20 23:27:00,
2013-02-20 18:32:00,36.5,11.8,30.24,NNW,338,0.0,0.0,36,0.00,,,0.00,WUHU216HW,2013-02-20 23:32:00,
2013-02-20 18:37:00,36.3,12.3,30.24,NNW,338,0.0,0.0,37,0.00,,,0.00,WUHU216HW,2013-02-20 23:37:00,
2013-02-20 18:42:00,36.3,12.3,30.24,North,0,0.0,0.0,37,0.00,,,0.00,WUHU216HW,2013-02-20 23:42:00,
2013-02-20 18:47:00,35.9,12.0,30.24,WNW,293,0.0,0.0,37,0.00,,,0.00,WUHU216HW,2013-02-20 23:47:00,
2013-02-20 18:52:00,35.7,11.8,30.24,SSE,158,0.0,0.0,37,0.00,,,0.00,WUHU216HW,2013-02-20 23:52:00,
2013-02-20 18:57:00,35.7,11.8,30.24,West,270,0.0,0.0,37,0.00,,,0.00,WUHU216HW,2013-02-20 23:57:00,
2013-02-20 19:02:00,35.4,11.5,30.23,West,270,0.0,0.0,37,0.00,,,0.00,WUHU216HW,2013-02-21 00:02:00,
2013-02-20 19:07:00,35.4,12.1,30.23,West,270,0.0,0.0,38,0.00,,,0.00,WUHU216HW,2013-02-21 00:07:00,
2013-02-20 19:12:00,35.2,12.0,30.24,West,270,0.0,0.0,38,0.00,,,0.00,WUHU216HW,2013-02-21 00:12:00,
2013-02-20 19:17:00,35.2,12.0,30.24,West,270,0.0,0.0,38,0.00,,,0.00,WUHU216HW,2013-02-21 00:17:00,
2013-02-20 19:22:00,34.8,11.6,30.25,West,270,0.0,0.0,38,0.00,,,0.00,WUHU216HW,2013-02-21 00:22:00,
2013-02-20 19:27:00,34.7,12.1,30.25,West,270,0.0,0.0,39,0.00,,,0.00,WUHU216HW,2013-02-21 00:27:00,
2013-02-20 19:32:00,34.5,12.0,30.25,West,270,0.0,0.0,39,0.00,,,0.00,WUHU216HW,2013-02-21 00:32:00,
2013-02-20 19:37:00,34.3,11.8,30.26,West,270,0.0,0.0,39,0.00,,,0.00,WUHU216HW,2013-02-21 00:37:00,
2013-02-20 19:42:00,34.3,11.8,30.25,West,270,0.0,0.0,39,0.00,,,0.00,WUHU216HW,2013-02-21 00:42:00,
2013-02-20 19:47:00,34.3,11.8,30.25,West,270,0.0,0.0,39,0.00,,,0.00,WUHU216HW,2013-02-21 00:47:00,
2013-02-20 19:52:00,33.9,11.5,30.25,West,270,0.0,0.0,39,0.00,,,0.00,WUHU216HW,2013-02-21 00:52:00,
2013-02-20 19:57:00,33.8,11.3,30.25,West,270,0.0,0.0,39,0.00,,,0.00,WUHU216HW,2013-02-21 00:57:00,
2013-02-20 20:02:00,33.6,11.8,30.26,West,270,0.0,0.0,40,0.00,,,0.00,WUHU216HW,2013-02-21 01:02:00,
2013-02-20 20:07:00,33.4,11.6,30.25,West,270,0.0,0.0,40,0.00,,,0.00,WUHU216HW,2013-02-21 01:07:00,
2013-02-20 20:12:00,33.0,10.7,30.25,West,270,0.0,0.0,39,0.00,,,0.00,WUHU216HW,2013-02-21 01:12:00,
2013-02-20 20:17:00,32.9,11.2,30.24,West,270,0.0,0.0,40,0.00,,,0.00,WUHU216HW,2013-02-21 01:17:00,
2013-02-20 20:22:00,32.7,11.0,30.25,West,270,0.0,0.0,40,0.00,,,0.00,WUHU216HW,2013-02-21 01:22:00,
2013-02-20 20:27:00,32.5,10.8,30.24,West,270,0.0,0.0,40,0.00,,,0.00,WUHU216HW,2013-02-21 01:27:00,
2013-02-20 20:32:00,32.3,10.7,30.24,West,270,0.0,0.0,40,0.00,,,0.00,WUHU216HW,2013-02-21 01:32:00,
2013-02-20 20:37:00,32.1,10.5,30.24,West,270,0.0,0.0,40,0.00,,,0.00,WUHU216HW,2013-02-21 01:37:00,
2013-02-20 20:42:00,31.8,10.2,30.25,West,270,0.0,0.0,40,0.00,,,0.00,WUHU216HW,2013-02-21 01:42:00,
2013-02-20 20:47:00,31.6,10.0,30.25,West,270,0.0,0.0,40,0.00,,,0.00,WUHU216HW,2013-02-21 01:47:00,
2013-02-20 20:52:00,31.2,10.2,30.25,West,270,0.0,0.0,41,0.00,,,0.00,WUHU216HW,2013-02-21 01:52:00,
2013-02-20 20:57:00,30.9,9.9,30.25,West,270,0.0,0.0,41,0.00,,,0.00,WUHU216HW,2013-02-21 01:57:00,
2013-02-20 21:02:00,30.7,9.7,30.25,West,270,0.0,0.0,41,0.00,,,0.00,WUHU216HW,2013-02-21 02:02:00,
2013-02-20 21:07:00,30.5,9.6,30.25,West,270,0.0,0.0,41,0.00,,,0.00,WUHU216HW,2013-02-21 02:07:00,
2013-02-20 21:12:00,30.3,9.4,30.25,West,270,0.0,0.0,41,0.00,,,0.00,WUHU216HW,2013-02-21 02:12:00,
2013-02-20 21:17:00,30.2,9.7,30.26,West,270,0.0,0.0,42,0.00,,,0.00,WUHU216HW,2013-02-21 02:17:00,
2013-02-20 21:22:00,30.0,9.6,30.26,West,270,0.0,0.0,42,0.00,,,0.00,WUHU216HW,2013-02-21 02:22:00,
2013-02-20 21:27:00,29.8,9.4,30.26,West,270,0.0,0.0,42,0.00,,,0.00,WUHU216HW,2013-02-21 02:27:00,
2013-02-20 21:32:00,29.6,9.3,30.26,West,270,0.0,0.0,42,0.00,,,0.00,WUHU216HW,2013-02-21 02:32:00,
2013-02-20 21:37:00,29.4,9.1,30.26,West,270,0.0,0.0,42,0.00,,,0.00,WUHU216HW,2013-02-21 02:37:00,
2013-02-20 21:42:00,29.3,8.9,30.26,West,270,0.0,0.0,42,0.00,,,0.00,WUHU216HW,2013-02-21 02:42:00,
2013-02-20 21:47:00,29.1,9.3,30.26,West,270,0.0,0.0,43,0.00,,,0.00,WUHU216HW,2013-02-21 02:47:00,
2013-02-20 21:52:00,28.9,9.1,30.26,West,270,0.0,0.0,43,0.00,,,0.00,WUHU216HW,2013-02-21 02:52:00,
2013-02-20 21:57:00,28.9,9.1,30.26,West,270,0.0,0.0,43,0.00,,,0.00,WUHU216HW,2013-02-21 02:57:00,
2013-02-20 22:02:00,28.9,9.6,30.26,West,270,0.0,0.0,44,0.00,,,0.00,WUHU216HW,2013-02-21 03:02:00,
2013-02-20 22:07:00,28.9,10.1,30.26,West,270,0.0,0.0,45,0.00,,,0.00,WUHU216HW,2013-02-21 03:07:00,
2013-02-20 22:12:00,28.9,10.1,30.26,West,270,0.0,0.0,45,0.00,,,0.00,WUHU216HW,2013-02-21 03:12:00,
2013-02-20 22:17:00,28.7,10.0,30.26,West,270,0.0,0.0,45,0.00,,,0.00,WUHU216HW,2013-02-21 03:17:00,
2013-02-20 22:22:00,28.7,10.0,30.26,West,270,0.0,0.0,45,0.00,,,0.00,WUHU216HW,2013-02-21 03:22:00,
2013-02-20 22:27:00,28.7,10.5,30.26,West,270,0.0,0.0,46,0.00,,,0.00,WUHU216HW,2013-02-21 03:27:00,
2013-02-20 22:32:00,28.5,9.8,30.25,West,270,0.0,0.0,45,0.00,,,0.00,WUHU216HW,2013-02-21 03:32:00,
2013-02-20 22:37:00,28.5,10.3,30.25,West,270,0.0,0.0,46,0.00,,,0.00,WUHU216HW,2013-02-21 03:37:00,
2013-02-20 22:42:00,28.4,10.1,30.25,West,270,0.0,0.0,46,0.00,,,0.00,WUHU216HW,2013-02-21 03:42:00,
2013-02-20 22:47:00,28.2,10.0,30.24,West,270,0.0,0.0,46,0.00,,,0.00,WUHU216HW,2013-02-21 03:47:00,
2013-02-20 22:52:00,28.0,9.8,30.24,West,270,0.0,0.0,46,0.00,,,0.00,WUHU216HW,2013-02-21 03:52:00,
2013-02-20 22:57:00,28.0,9.8,30.24,West,270,0.0,0.0,46,0.00,,,0.00,WUHU216HW,2013-02-21 03:57:00,
2013-02-20 23:02:00,27.6,9.4,30.25,West,270,0.0,0.0,46,0.00,,,0.00,WUHU216HW,2013-02-21 04:02:00,
2013-02-20 23:08:00,27.6,9.4,30.24,West,270,0.0,0.0,46,0.00,,,0.00,WUHU216HW,2013-02-21 04:08:00,
2013-02-20 23:13:00,27.5,9.3,30.25,West,270,0.0,0.0,46,0.00,,,0.00,WUHU216HW,2013-02-21 04:13:00,
2013-02-20 23:18:00,27.3,9.1,30.25,West,270,0.0,0.0,46,0.00,,,0.00,WUHU216HW,2013-02-21 04:18:00,
2013-02-20 23:23:00,27.1,8.9,30.25,West,270,0.0,0.0,46,0.00,,,0.00,WUHU216HW,2013-02-21 04:23:00,
2013-02-20 23:28:00,26.9,8.7,30.25,West,270,0.0,0.0,46,0.00,,,0.00,WUHU216HW,2013-02-21 04:28:00,
2013-02-20 23:33:00,26.7,8.6,30.24,West,270,0.0,0.0,46,0.00,,,0.00,WUHU216HW,2013-02-21 04:33:00,
2013-02-20 23:38:00,26.4,8.2,30.24,West,270,0.0,0.0,46,0.00,,,0.00,WUHU216HW,2013-02-21 04:38:00,
2013-02-20 23:43:00,26.4,8.7,30.24,West,270,0.0,0.0,47,0.00,,,0.00,WUHU216HW,2013-02-21 04:43:00,
2013-02-20 23:48:00,26.4,8.7,30.24,West,270,0.0,0.0,47,0.00,,,0.00,WUHU216HW,2013-02-21 04:48:00,
2013-02-20 23:53:00,26.4,8.7,30.25,West,270,0.0,0.0,47,0.00,,,0.00,WUHU216HW,2013-02-21 04:53:00,
2013-02-20 23:58:00,26.2,9.1,30.25,West,270,0.0,0.0,48,0.00,,,0.00,WUHU216HW,2013-02-21 04:58:00,